Regional Weather Roundup
Issued by NWS

Home | Current Version | Previous Version | Text Only | Print | Product List | Glossary Off
Versions: 1 2 3 4 5 6 7 8 9 10 11 12 13 14 15 16 17 18 19 20 21 22 23 24 25 26 27 28 29 30 31 32 33 34 35 36 37 38 39 40 41 42 43 44 45 46 47 48 49 50

904
ASUS45 KCYS 271110
RWRWY

WYOMING REGIONAL WEATHER ROUNDUP
NATIONAL WEATHER SERVICE CHEYENNE WY
400 AM MST MON FEB 27 2017

NOTE:  "FAIR" INDICATES FEW OR NO CLOUDS BELOW 12,000 FEET
WITH NO SIGNIFICANT WEATHER AND/OR OBSTRUCTIONS TO VISIBILITY.

WYZ001-271200-
YELLOWSTONE NATIONAL PARK

CITY           SKY/WX    TMP DP  RH WIND       PRES   REMARKS
LK YELLOWSTONE   N/A      9   7  92 CALM      29.49F
W YELLOWSTONE  NOT AVBL

$$
WYZ002>013-054>058-071-098>099-271200-
NORTHERN WYOMING

CITY           SKY/WX    TMP DP  RH WIND       PRES   REMARKS
JACKSON        CLOUDY    16  16 100 SW12      29.52F WCI   3
CODY           FAIR      21  11  65 N3        29.53F
GREYBULL       FAIR      24  12  60 S3        29.57F
WORLAND        FAIR      21  11  65 SE8       29.56F WCI  11
SHERIDAN       FAIR      18   8  65 SW9       29.55F WCI   7
BUFFALO        FAIR      23   1  38 VRB5      29.53F WCI  17
GILLETTE       FAIR      21  11  65 CALM      29.57F
HULETT         FAIR      25  10  54 S7        29.59F WCI  17
NEWCASTLE      FAIR      21  10  63 SE9       29.65F WCI  11

$$
WYZ014>020-022>026-101>103-271200-
CENTRAL WYOMING

CITY           SKY/WX    TMP DP  RH WIND       PRES   REMARKS
BIG PINEY      SNOW      10   7  87 N3        29.55F
PINEDALE       LGT SNOW  12  10  92 W3        29.55F
DUBOIS         CLOUDY    14   7  73 SE6       29.49R WCI   5
LANDER         CLOUDY    10   3  73 NW7       29.55S WCI  -1
RIVERTON       CLOUDY    10   6  84 NW12      29.55F WCI  -5
CASPER         CLOUDY    22  12  65 SW10      29.59F WCI  11
DOUGLAS        CLOUDY    19  10  68 SE6       29.63F WCI  11

$$
WYZ021-027>030-104>119-271200-
SOUTHERN WYOMING

CITY           SKY/WX    TMP DP  RH WIND       PRES   REMARKS
EVANSTON       LGT SNOW  25  21  85 SW24      29.52F VSB 3/4 WCI   9
FORT BRIDGER   FAIR      10   7  87 CALM      29.56F
ROCK SPRINGS   FAIR      20  11  68 SW13      29.54F WCI   7
DIXON            N/A     30  16  56 S18G35    29.65S WCI  18
RAWLINS          N/A     26  13  57 S24G35    29.55F WCI  11
SARATOGA       FAIR      27  14  59 S13G20    29.61F WCI  16
LARAMIE        FAIR      19   7  59 SW14      29.60F WCI   6
CHEYENNE       FAIR       7   2  80 SW8       29.65F WCI  -6
TORRINGTON     FAIR      10   4  76 E14       29.68F WCI  -6
PINE BLUFFS    FAIR       9   3  78 S7        29.69F WCI  -3

$$




USA.gov is the U.S. government's official web portal to all federal, state and local government web resources and services.